x

Big Bay, Mi (bigm4) Weather Station

1:40am - Fri 12th Feb 2016 All times are CST. -6 hours from GMT.

  • Wind
    6mph, 10mph gusts
  • Air Temp 14°f
  • Sea Pressure 1013.5mb
  • Big Bay, Mi
  • Big Bay, Mi

More Historic Weather Station data

Upgrade to MSW Pro to gain access to the past 30 days of data for over 8000 Wavebouys and Weather Stations around the globe.

Join Pro

Comparision Forecast

View Surf forecast
   
Fri 02/12 1:40am 6 10 mph 1013.5mb 14f
1:30am 3 7 mph 1013.9mb 13f
1:20am  -  7 mph 1013.5mb 13f
1:10am  -  7 mph 1013.9mb 13f
1:00am 2 7 mph 1013.9mb 13f
12:40am 2 10 mph 1013.9mb 13f
12:30am 2 13 mph 1013.9mb 13f
12:20am 3 11 mph 1014.2mb 13f
12:10am 3 10 mph 1014.2mb 13f
12:00am 5 11 mph 1014.2mb 13f
Thu 02/11 11:40pm 1 10 mph 1014.6mb 13f
11:30pm 3 10 mph 1014.6mb 13f
11:20pm 6 13 mph 1014.6mb 13f
11:10pm 7 15 mph 1014.6mb 13f
11:00pm  -  9 mph 1014.6mb 13f
10:40pm 3 13 mph 1014.9mb 13f
10:30pm 3 10 mph 1014.9mb 13f
10:20pm 7 11 mph 1014.9mb 13f
10:10pm 10 16 mph 1015.2mb 13f
10:00pm 7 14 mph 1015.2mb 13f
9:40pm 2 21 mph 1015.2mb 14f
9:30pm 3 14 mph 1015.2mb 14f
9:20pm 7 15 mph 1015.2mb 14f
9:10pm 2 14 mph 1015.6mb 14f
9:00pm 2 11 mph 1015.6mb 14f
8:40pm 6 10 mph 1015.6mb 14f
8:30pm 5 9 mph 1015.9mb 13f
8:20pm 3 11 mph 1016.3mb 13f
8:10pm 2 8 mph 1016.3mb 13f
8:00pm 2 5 mph 1016.3mb 12f
7:40pm 1 3 mph 1016.9mb 11f
7:30pm 1 5 mph 1016.9mb 11f
7:20pm  -  3 mph 1017.3mb 8f
7:10pm  -  mph 1017.6mb 7f
7:00pm  -  mph 1017.6mb 8f
6:40pm  -  mph 1017.6mb 9f
6:30pm  -  mph 1017.6mb 9f
6:20pm  -  mph 1017.6mb 10f
6:10pm  -  mph 1017.6mb 10f
6:00pm  -  mph 1017.6mb 11f
5:40pm  -  mph 1017.9mb 13f
5:30pm  -  mph 1017.9mb 13f
5:20pm  -  3 mph 1017.9mb 14f
5:10pm  -  5 mph 1017.6mb 14f
5:00pm  -  8 mph 1017.6mb 15f
4:40pm 3 7 mph 1017.9mb 16f
4:30pm 5 8 mph 1017.9mb 16f
4:20pm 3 6 mph 1017.9mb 16f
4:10pm 3 8 mph 1018.3mb 16f
4:00pm 2 8 mph 1018.3mb 16f
3:40pm 3 10 mph 1018.6mb 16f
3:30pm 2 8 mph 1018.6mb 16f
3:20pm 3 9 mph 1018.6mb 17f
3:10pm 5 13 mph 1018.6mb 16f
3:00pm 2 8 mph 1019mb 17f
2:40pm 2 11 mph 1019mb 16f
2:30pm 1 11 mph 1019mb 16f
2:20pm 3 17 mph 1019mb 15f
2:10pm 8 17 mph 1019mb 15f
2:00pm 3 15 mph 1019.3mb 16f
1:40pm 5 13 mph 1019.3mb 15f
1:30pm 6 15 mph 1019.6mb 16f
1:20pm 3 17 mph 1019.6mb 16f
1:10pm 7 17 mph 1019.6mb 15f
1:00pm 8 16 mph 1020mb 15f
12:40pm 7 17 mph 1020mb 15f
12:30pm 6 21 mph 1020mb 15f
12:20pm 9 17 mph 1020mb 16f
12:10pm 6 14 mph 1020.3mb 14f
12:00pm 7 14 mph 1020.3mb 15f
11:40am 10 17 mph 1020.3mb 14f
11:30am 6 20 mph 1020.7mb 12f
11:20am 5 11 mph 1020.7mb 12f
11:10am 6 13 mph 1020.7mb 12f
11:00am 7 14 mph 1020.7mb 12f
10:40am 6 15 mph 1020.7mb 13f
10:30am 6 11 mph 1020.7mb 13f
10:20am 6 14 mph 1020.7mb 13f
10:10am 3 13 mph 1020.7mb 13f
10:00am 3 11 mph 1020.7mb 12f
9:40am  -  13 mph 1020.7mb 11f
9:30am 3 13 mph 1020.7mb 11f
9:20am  -  10 mph 1020.7mb 11f
9:10am  -  8 mph 1020.7mb 11f
9:00am 6 8 mph 1020.7mb 10f
8:40am 1 7 mph 1020.3mb 10f
8:30am 2 9 mph 1020.7mb 10f
8:20am 3 8 mph 1020.7mb 10f
8:10am 1 8 mph 1020.7mb 10f
8:00am 2 8 mph 1020.3mb 9f
7:40am 1 6 mph 1020.3mb 10f
7:30am  -  5 mph 1020.7mb 10f
7:20am 2 6 mph 1020.3mb 9f
7:10am  -  3 mph 1020.3mb 9f
7:00am  -  7 mph 1020.3mb 10f
6:40am 3 10 mph 1020.3mb 10f
6:30am 5 9 mph 1020.3mb 10f
6:20am 2 13 mph 1020.3mb 10f
6:10am 5 10 mph 1020mb 10f
6:00am 7 10 mph 1020mb 10f
5:40am 2 8 mph 1020.3mb 10f
5:30am 3 13 mph 1020mb 11f
5:20am 6 16 mph 1020mb 10f
5:10am 3 7 mph 1020mb 11f
5:00am 3 6 mph 1019.6mb 10f
4:40am 7 13 mph 1019.6mb 11f
4:30am 9 14 mph 1019.6mb 11f
4:20am 3 13 mph 1019.6mb 10f
4:10am 5 13 mph 1019.6mb 10f
4:00am 6 10 mph 1019.6mb 11f
3:40am 9 15 mph 1019.3mb 11f
3:30am 7 18 mph 1019mb 11f
3:20am 13 16 mph 1018.6mb 11f
3:10am 10 15 mph 1019mb 11f
3:00am 9 20 mph 1019mb 11f
2:40am 7 10 mph 1019.3mb 10f
2:30am 6 13 mph 1019mb 11f
2:20am 7 17 mph 1019mb 11f
2:10am 13 20 mph 1019mb 12f
2:00am 8 15 mph 1019mb 11f
1:50am 7 15 mph 1019mb 11f
1:40am 11 16 mph 1018.6mb 10f
1:30am 7 17 mph 1018.6mb 10f
1:20am 9 18 mph 1018.6mb 11f
1:10am 7 20 mph 1018.6mb 11f
1:00am 6 14 mph 1018.6mb 11f
12:50am 11 21 mph 1018.3mb 11f
12:40am 10 16 mph 1018.3mb 11f
12:30am 7 20 mph 1018.6mb 11f
12:20am 16 22 mph 1018.3mb 11f
12:10am 14 20 mph 1018.3mb 11f
12:00am 13 28 mph 1018.3mb 11f
Wed 02/10 11:50pm 14 22 mph 1018.3mb 12f
11:40pm 15 28 mph 1017.6mb 13f
11:30pm 15 22 mph 1017.6mb 13f
11:20pm 15 23 mph 1017.6mb 13f
11:10pm 16 24 mph 1017.6mb 13f
11:00pm 13 28 mph 1017.6mb 13f
10:50pm 18 28 mph 1017.3mb 13f
10:40pm 8 14 mph 1017.6mb 11f
10:30pm 9 18 mph 1017.6mb 13f
10:20pm 8 16 mph 1017.3mb 12f
10:10pm 6 16 mph 1017.3mb 12f
10:00pm 10 20 mph 1017.3mb 12f
9:50pm 8 14 mph 1017.3mb 11f
9:40pm 5 17 mph 1017.3mb 12f
9:30pm 9 17 mph 1017.3mb 11f
9:20pm 8 16 mph 1017.3mb 11f
9:10pm 8 20 mph 1017.3mb 12f
9:00pm 13 18 mph 1017.3mb 12f
8:50pm 11 16 mph 1017.3mb 12f
8:40pm 15 24 mph 1017.3mb 12f
8:30pm 13 22 mph 1017.3mb 11f
8:20pm 10 15 mph 1017.3mb 11f
8:10pm 11 18 mph 1017.3mb 11f
8:00pm 10 17 mph 1017.3mb 11f
7:50pm 10 18 mph 1017.3mb 11f
7:40pm 8 14 mph 1017.3mb 11f
7:30pm 9 18 mph 1017.3mb 11f
7:20pm 10 17 mph 1017.3mb 11f
7:10pm 7 15 mph 1017.3mb 11f
7:00pm 11 20 mph 1017.3mb 11f
6:50pm 8 16 mph 1017.3mb 10f
6:40pm 7 15 mph 1017.3mb 10f
6:30pm 7 14 mph 1017.3mb 11f
6:20pm 8 16 mph 1016.9mb 11f
6:10pm 7 14 mph 1016.9mb 10f
6:00pm 8 15 mph 1016.9mb 10f
5:50pm 6 17 mph 1016.9mb 11f
5:40pm 10 17 mph 1016.6mb 11f
5:30pm 6 14 mph 1016.9mb 11f
5:20pm 8 17 mph 1016.6mb 10f
5:10pm 15 20 mph 1016.6mb 10f
5:00pm 16 21 mph 1016.3mb 11f
4:50pm 9 16 mph 1016.3mb 10f
4:40pm 9 16 mph 1016.3mb 10f
4:30pm 15 23 mph 1015.9mb 11f
4:20pm 15 18 mph 1015.9mb 11f
4:10pm 11 21 mph 1015.9mb 10f
4:00pm 14 23 mph 1015.9mb 11f
3:50pm 11 20 mph 1015.6mb 11f
3:40pm 16 23 mph 1015.6mb 12f
3:30pm 14 20 mph 1015.6mb 11f
3:20pm 10 18 mph 1015.6mb 11f
3:10pm 10 21 mph 1015.2mb 11f
3:00pm 11 17 mph 1015.2mb 11f
2:50pm 14 22 mph 1015.2mb 11f
2:40pm 14 21 mph 1014.9mb 11f
2:30pm 13 16 mph 1014.9mb 11f
2:20pm 9 17 mph 1014.9mb 10f
2:10pm 13 21 mph 1014.9mb 11f
2:00pm 10 25 mph 1014.9mb 11f
1:50pm 16 22 mph 1014.6mb 11f
1:40pm 16 23 mph 1014.6mb 11f
1:30pm 17 23 mph 1014.6mb 13f
1:20pm 18 24 mph 1014.2mb 12f
1:10pm 13 21 mph 1014.6mb 11f
1:00pm 15 22 mph 1014.6mb 12f
12:50pm 14 22 mph 1014.2mb 12f
12:40pm 14 22 mph 1014.2mb 12f
12:30pm 17 22 mph 1014.6mb 13f
12:20pm 16 22 mph 1014.6mb 12f
12:10pm 11 25 mph 1014.6mb 11f
12:00pm 18 23 mph 1014.6mb 11f
11:40am 15 25 mph 1014.6mb 10f
11:30am 20 26 mph 1014.6mb 11f
11:20am 15 26 mph 1014.6mb 11f
11:10am 16 23 mph 1014.6mb 10f
11:00am 17 23 mph 1014.2mb 10f
10:50am 15 23 mph 1014.6mb 10f
10:40am 17 24 mph 1014.6mb 11f
10:30am 16 23 mph 1014.6mb 10f
10:20am 17 26 mph 1014.6mb 10f
10:10am 22 28 mph 1014.2mb 10f
10:00am 15 24 mph 1014.2mb 10f
9:50am 17 26 mph 1014.2mb 10f
9:40am 17 29 mph 1013.9mb 10f
9:30am 17 26 mph 1013.9mb 11f
9:20am 18 25 mph 1013.9mb 9f
9:10am 15 23 mph 1013.5mb 10f
9:00am 18 29 mph 1013.5mb 10f
8:56am 17 29 mph 1013.2mb 10f
8:50am 20 24 mph 1013.5mb 10f
8:40am 17 28 mph 1013.9mb 9f
8:30am 16 28 mph 1013.5mb 10f
8:20am 16 21 mph 1013.2mb 10f
8:10am 20 24 mph 1013.5mb 10f
8:00am 16 24 mph 1013.5mb 10f
7:50am 16 28 mph 1012.9mb 9f
7:40am 21 28 mph 1012.9mb 10f
7:30am 15 29 mph 1013.2mb 10f
7:20am 20
mph
1012.9mb 10f
7:15am 14 29 mph 1012.5mb 10f
7:10am 14 24 mph 1012.9mb 9f
7:00am 16 24 mph 1012.9mb 10f
6:50am 18 26 mph 1012.9mb 11f
6:40am 13 26 mph 1012.9mb 9f
6:30am 17 24 mph 1012.9mb 10f
6:20am 20 29 mph 1012.5mb 10f
6:10am 17 29 mph 1012.5mb 10f
6:00am 17 26 mph 1012.5mb 9f
5:50am 18 26 mph 1012.5mb 10f
5:40am 16 24 mph 1012.5mb 9f
5:30am 18 26 mph 1012.5mb 10f
5:20am 18 23 mph 1012.2mb 11f
5:10am 14 22 mph 1012.2mb 10f
5:00am 15 25 mph 1012.2mb 10f
4:50am 17 28 mph 1012.2mb 10f
4:40am 16 28 mph 1012.2mb 11f
4:30am 14 21 mph 1012.2mb 10f
4:20am 15 24 mph 1012.2mb 11f
4:10am 18 23 mph 1012.2mb 10f
4:00am 16
mph
1012.2mb 10f
3:50am 21 26 mph 1011.9mb 11f
3:40am 14 24 mph 1012.2mb 11f
3:30am 16 24 mph 1012.2mb 11f
3:20am 17 23 mph 1012.2mb 11f
3:10am 16 26 mph 1012.2mb 11f
3:00am 16 31 mph 1012.2mb 11f
2:50am 16 29 mph 1011.9mb 11f
2:40am 21 31 mph 1011.9mb 11f
2:30am 21 25 mph 1012.2mb 11f
2:20am 20 28 mph 1012.2mb 11f
2:10am 21 28 mph 1011.9mb 11f
2:00am 16 26 mph 1012.2mb 11f
1:50am 17 29 mph 1011.9mb 11f
1:40am 16 29 mph 1012.2mb 11f
1:30am 23 30 mph 1011.5mb 12f
1:20am 18 24 mph 1011.9mb 12f
1:10am 11 21 mph 1011.9mb 11f
1:00am 10 23 mph 1012.2mb 11f
12:50am 17 25 mph 1011.9mb 12f
12:40am 16 26 mph 1012.2mb 12f
12:30am 20 25 mph 1011.9mb 12f
12:20am 11 22 mph 1011.9mb 12f
12:10am 13 24 mph 1012.2mb 12f
12:00am 17 31 mph 1012.2mb 13f
Tue 02/09 11:50pm 16 24 mph 1011.9mb 12f
11:40pm 16 30 mph 1011.9mb 12f
11:30pm 18 30 mph 1011.2mb 13f
11:20pm 15 28 mph 1012.2mb 13f
11:10pm 17 26 mph 1011.9mb 13f
11:00pm 18 28 mph 1012.2mb 12f
10:50pm 15 24 mph 1012.2mb 12f
10:40pm 18 26 mph 1011.9mb 12f
10:30pm 16 25 mph 1011.9mb 13f
10:20pm 17 25 mph 1011.9mb 13f
10:10pm 16 26 mph 1012.2mb 13f
10:06pm 16
mph
1012.2mb 13f
10:00pm 15 29 mph 1012.2mb 12f
9:50pm 21 29 mph 1011.9mb 13f
9:40pm 20 28 mph 1012.2mb 13f
9:30pm 16 28 mph 1012.2mb 13f
9:20pm 15 25 mph 1012.2mb 13f
9:10pm 18 30 mph 1012.2mb 14f
9:00pm 21 28 mph 1012.2mb 15f
8:50pm 18 29 mph 1012.2mb 14f
8:40pm 17 24 mph 1012.2mb 14f
8:30pm 21 29 mph 1012.2mb 15f
8:20pm 16 26 mph 1012.2mb 15f
8:10pm 18 31 mph 1012.2mb 14f
8:07pm 20 29 mph 1011.9mb 15f
8:00pm 24 34 mph 1012.2mb 15f
7:50pm 21 32 mph 1012.5mb 15f
7:40pm 20 34 mph 1012.5mb 15f
7:30pm 23 32 mph 1012.2mb 16f
7:20pm 21 31 mph 1012.2mb 15f
7:10pm 23 36 mph 1012.2mb 15f
7:05pm 23
mph
1012.2mb 16f
7:00pm 23 32 mph 1012.2mb 15f
6:40pm 18 31 mph 1012.2mb 15f
6:30pm 21 28 mph 1012.2mb 16f
6:20pm 24 34 mph 1012.2mb 16f
6:10pm 24 32 mph 1011.9mb 16f
6:04pm 24
mph
1011.5mb 16f
6:00pm 26 38 mph 1011.9mb 16f
5:50pm 29 37 mph 1011.9mb 16f
5:40pm 25 33 mph 1011.5mb 16f
5:30pm 20 28 mph 1011.5mb 16f
5:20pm 21 33 mph 1011.5mb 15f
5:10pm 23 33 mph 1011.2mb 15f
5:04pm 21
mph
1011.2mb 15f
5:00pm 20 26 mph 1011.5mb 15f
4:50pm 17 23 mph 1011.2mb 15f
4:40pm 18 26 mph 1011.2mb 15f
4:30pm 18 25 mph 1011.2mb 16f
4:20pm 20 30 mph 1011.2mb 15f
4:10pm 23 30 mph 1010.8mb 15f
4:03pm 15
mph
1010.8mb 15f
4:00pm 16 29 mph 1010.8mb 15f
3:50pm 22 29 mph 1010.5mb 16f
3:40pm 22 29 mph 1010.5mb 16f
3:30pm 17 28 mph 1010.5mb 16f
3:20pm 20 26 mph 1010.5mb 16f
3:10pm 20 26 mph 1010.5mb 16f
3:03pm 18
mph
1010.2mb 16f
3:00pm 25 32 mph 1010.2mb 16f
2:50pm 21 28 mph 1009.8mb 16f
2:40pm 24 32 mph 1009.8mb 16f
2:30pm 21 31 mph 1009.8mb 15f
2:20pm 21 29 mph 1009.5mb 16f
2:10pm 20 31 mph 1009.1mb 16f
2:07pm 18 31 mph 1009.5mb 15f
2:00pm 20 31 mph 1009.5mb 15f
1:50pm 21 26 mph 1009.5mb 16f
1:40pm 21 26 mph 1009.5mb 16f
1:30pm 18 31 mph 1009.5mb 15f
1:20pm 21 28 mph 1009.5mb 16f
1:10pm 21 31 mph 1009.5mb 15f
1:02pm 15
mph
1009.5mb 15f
1:00pm 18 29 mph 1009.5mb 15f
12:40pm 20 28 mph 1009.5mb 16f
12:30pm 21 28 mph 1009.1mb 16f
12:20pm 22 28 mph 1008.8mb 16f
12:10pm 22 32 mph 1009.1mb 16f
12:01pm 21
mph
1009.1mb 16f
12:00pm 21 31 mph 1008.8mb 16f
11:50am 16 24 mph 1009.5mb 16f
11:40am 16 30 mph 1009.1mb 17f
11:30am 21 31 mph 1009.1mb 17f
11:20am 20 26 mph 1009.1mb 17f
11:10am 17 26 mph 1009.5mb 17f
11:00am 22 31 mph 1009.1mb 17f
10:50am 22 25 mph 1009.1mb 17f
10:40am 22 29 mph 1008.8mb 17f
10:30am 22 29 mph 1008.5mb 17f
10:29am 23 29 mph 1008.5mb 18f
10:20am 21 30 mph 1008.8mb 18f
10:10am 17 28 mph 1008.8mb 17f
10:00am 20 30 mph 1008.8mb 18f
9:50am 18 28 mph 1008.5mb 17f
9:40am 21 31 mph 1008.5mb 17f
9:30am 28 36 mph 1008.1mb 17f
9:21am 20 29 mph 1008.1mb 17f
9:20am 20 26 mph 1008.5mb 17f
9:10am 18 28 mph 1008.1mb 17f
9:00am 18
mph
1008.5mb 17f
8:50am 17 26 mph 1008.5mb 17f
8:40am 15 24 mph 1008.5mb 17f
8:30am 18 30 mph 1008.5mb 16f
8:20am 18 25 mph 1008.5mb 17f
8:10am 22 30 mph 1008.5mb 17f
8:02am 21 30 mph 1008.1mb 16f
8:00am 18 29 mph 1008.1mb 16f
7:50am 16 25 mph 1008.1mb 17f
7:40am 17 25 mph 1008.1mb 16f
7:30am 15 26 mph 1008.1mb 16f
7:20am 17 25 mph 1008.1mb 16f
7:10am 15 28 mph 1008.1mb 15f
7:00am 20 24 mph 1008.1mb 16f
6:50am 18 29 mph 1007.8mb 16f
6:40am 17 28 mph 1007.8mb 16f
6:30am 23 28 mph 1007.8mb 16f
6:20am 15 26 mph 1007.8mb 16f
6:10am 18 24 mph 1007.5mb 16f
6:00am 20 26 mph 1007.5mb 16f
5:50am 15 23 mph 1007.5mb 16f
5:40am 15 25 mph 1007.1mb 15f
5:30am 14 23 mph 1007.5mb 16f
5:20am 15 28 mph 1007.1mb 15f
5:10am 15 28 mph 1007.1mb 15f
5:00am 16 23 mph 1006.8mb 16f
4:50am 16 25 mph 1007.1mb 16f
4:40am 15 23 mph 1006.8mb 16f
4:30am 16 21 mph 1007.1mb 16f
4:20am 16 22 mph 1006.8mb 16f
4:10am 16 24 mph 1006.8mb 16f
4:00am 16 24 mph 1006.4mb 16f
3:50am 13 24 mph 1006.4mb 16f
3:40am 13 22 mph 1006.4mb 16f
3:30am 13 21 mph 1006.8mb 16f
3:20am 13 24 mph 1006.4mb 16f
3:10am 14 21 mph 1006.8mb 16f
3:00am 11 25 mph 1006.4mb 16f
2:50am 16 22 mph 1006.4mb 16f
2:40am 13 18 mph 1006.8mb 15f
2:30am 13 22 mph 1006.8mb 16f
2:20am 9 20 mph 1006.8mb 15f
2:10am 14 23 mph 1006.8mb 15f
2:00am 11 18 mph 1006.4mb 16f
1:50am 14 23 mph 1006.8mb 16f
1:40am 16 25 mph 1006.8mb 16f
1:30am 11 23 mph 1006.4mb 16f
1:20am 13 20 mph 1006.4mb 16f
1:10am 13 24 mph 1006.4mb 16f
1:00am 15 26 mph 1006.4mb 16f
12:50am 17 25 mph 1006.4mb 17f
12:40am 14 21 mph 1006.4mb 17f
12:30am 11 21 mph 1006.4mb 17f
12:20am 15 22 mph 1006.4mb 17f
12:10am 13 20 mph 1006.4mb 17f
12:00am 13 20 mph 1006.8mb 16f
Mon 02/08 11:50pm 14 20 mph 1006.4mb 17f
11:40pm 11 21 mph 1006.8mb 17f
11:30pm 15 22 mph 1006.8mb 17f
11:20pm 9 21 mph 1006.8mb 17f
11:10pm 13 20 mph 1006.8mb 16f
11:00pm 14 17 mph 1006.8mb 16f
10:50pm 15 24 mph 1006.8mb 16f
10:40pm 15 22 mph 1006.8mb 17f
10:30pm 14 25 mph 1006.8mb 16f
10:20pm 10 20 mph 1007.1mb 16f
10:10pm 10 22 mph 1006.8mb 16f
10:00pm 11 22 mph 1007.1mb 16f
9:50pm 16 23 mph 1006.4mb 16f
9:40pm 14 25 mph 1006.8mb 17f
9:30pm 13 20 mph 1006.8mb 17f
9:20pm 14 23 mph 1006.8mb 17f
9:10pm 14 21 mph 1006.8mb 17f
9:00pm 13 21 mph 1006.8mb 17f
8:50pm 14 18 mph 1007.1mb 17f
8:40pm 13 22 mph 1006.8mb 17f
8:30pm 16 23 mph 1006.8mb 17f
8:20pm 11 20 mph 1007.1mb 17f
8:10pm 9 18 mph 1007.1mb 17f
8:00pm 17 22 mph 1006.8mb 17f
7:50pm 11 20 mph 1006.8mb 17f
7:40pm 16 21 mph 1006.8mb 17f
7:30pm 10 18 mph 1007.1mb 17f
7:20pm 8 14 mph 1007.1mb 16f
7:10pm 8 18 mph 1007.1mb 17f
7:00pm 8 15 mph 1007.5mb 17f
6:50pm 7 14 mph 1007.1mb 17f
6:40pm 8 14 mph 1007.1mb 17f
6:30pm 6 13 mph 1007.1mb 17f
6:20pm 7 23 mph 1007.1mb 17f
6:10pm 8 23 mph 1007.1mb 17f
6:00pm 10 16 mph 1007.1mb 17f
5:50pm 8 15 mph 1007.1mb 17f
5:40pm 8 16 mph 1007.1mb 17f
5:30pm 7 14 mph 1007.1mb 17f
5:20pm 7 15 mph 1007.1mb 17f
5:10pm 8 14 mph 1007.1mb 17f
5:00pm 10 16 mph 1007.1mb 17f
4:50pm 5 14 mph 1007.1mb 17f
4:40pm 8 11 mph 1006.8mb 17f
4:30pm 8 11 mph 1006.8mb 17f
4:20pm 9 16 mph 1006.4mb 17f
4:10pm 9 20 mph 1006.4mb 17f
4:00pm 8 15 mph 1006.4mb 17f
3:50pm 7 18 mph 1006.4mb 17f
3:40pm 11 18 mph 1006.4mb 17f
3:30pm 13 18 mph 1006.1mb 18f
3:20pm 14 22 mph 1005.8mb 17f
3:10pm 7 15 mph 1006.1mb 18f
3:00pm 11 20 mph 1005.8mb 17f
2:50pm 10 18 mph 1006.1mb 18f
2:40pm 11 20 mph 1005.8mb 18f
2:30pm 13 20 mph 1005.4mb 18f
2:20pm 10 22 mph 1005.8mb 18f
2:10pm 11 17 mph 1005.4mb 19f
2:00pm 6 21 mph 1005.8mb 18f
1:50pm 9 21 mph 1005.8mb 18f
1:40pm 14 22 mph 1005.4mb 18f
1:30pm 11 24 mph 1005.8mb 19f
1:20pm 9 23 mph 1005.4mb 19f
1:10pm 9 22 mph 1005.4mb 19f
1:00pm 13 22 mph 1005.4mb 19f
12:50pm 14 20 mph 1005.4mb 19f
12:40pm 11 17 mph 1005.4mb 19f
12:30pm 10 17 mph 1005.4mb 19f
12:20pm 11 21 mph 1005.4mb 20f
12:10pm 11 18 mph 1005.1mb 19f
12:00pm 9 17 mph 1005.4mb 19f
11:40am 11 16 mph 1005.1mb 20f
11:30am 9 16 mph 1005.4mb 20f
11:20am 9 17 mph 1005.4mb 21f
11:10am 9 18 mph 1005.1mb 21f
11:00am 10 15 mph 1005.1mb 21f
10:50am 14 23 mph 1005.1mb 21f
10:40am 13 16 mph 1005.1mb 21f
10:30am 9 16 mph 1005.1mb 21f
10:20am 10 18 mph 1004.7mb 22f
10:10am 13 18 mph 1004.7mb 22f
10:00am 11 18 mph 1004.7mb 22f
9:50am 11 17 mph 1004.7mb 23f
9:40am 9 17 mph 1004.7mb 22f
9:30am 10 17 mph 1004.4mb 23f
9:20am 7 22 mph 1004.4mb 22f
9:10am 11 22 mph 1004.1mb 22f
9:00am 10 17 mph 1004.1mb 22f